Theta_e
306 300 295 299 301 299 295 293 292 292 299 297 295 296 299 301 301 300 302 301 302 305 308 308 311 320 324 325 326 326 326 328 326 325 323 324 324 326 326 327 327 325 323 322
299 295 298 303 302 300 295 293 295 296 299 297 296 296 299 301 302 303 303 303 302 303 305 308 309 312 320 323 324 326 326 327 326 327 327 327 326 326 327 328 327 326 324 322
295 295 301 300 297 297 296 293 293 294 296 298 296 294 296 301 302 303 305 305 306 306 306 308 307 307 315 320 322 324 325 326 327 328 327 326 324 322 322 325 326 326 326 324
297 299 297 296 295 297 292 297 296 294 293 288 296 285 292 294 298 300 302 304 305 307 307 309 309 305 307 315 321 323 325 325 327 328 327 325 324 323 325 326 327 326 326 325
293 295 295 295 296 298 293 297 294 294 293 291 291 287 289 291 291 295 299 300 302 304 305 306 305 305 304 307 314 319 323 323 325 327 327 325 324 326 326 326 325 325 325 325
296 299 298 297 298 299 298 295 293 293 293 284 289 288 286 288 292 293 297 297 298 298 299 300 302 303 303 304 306 312 316 319 322 325 326 326 324 324 324 324 324 325 325 324
293 293 296 300 296 299 297 290 284 283 283 282 288 286 289 291 295 295 296 296 296 296 297 297 298 299 300 301 302 305 310 314 318 320 324 326 325 325 324 324 324 323 323 323
284 283 293 298 297 293 294 292 285 278 279 281 285 283 288 296 298 298 298 297 296 297 297 298 298 299 299 300 300 301 302 304 307 313 318 321 325 326 326 326 326 324 324 324
286 287 295 297 301 299 293 290 295 283 275 278 282 286 291 294 293 294 294 295 295 297 298 298 298 298 298 299 300 300 301 301 302 304 307 313 320 323 325 326 326 326 325 325
290 284 292 296 299 300 296 297 287 287 279 276 280 281 285 289 291 293 292 293 295 295 297 298 298 298 298 298 299 300 300 300 301 302 303 306 310 317 321 324 325 325 326 325
290 288 286 292 292 291 293 290 292 291 283 279 275 279 287 291 292 292 292 294 294 296 297 298 298 297 295 296 297 298 299 299 301 302 302 303 304 308 313 318 321 324 325 326
292 289 284 287 293 295 292 291 289 285 283 282 281 281 292 292 292 292 292 294 294 296 299 299 295 294 295 296 296 296 298 300 301 301 301 302 303 305 307 310 314 319 322 325
292 287 280 284 289 292 288 289 289 287 285 283 282 283 292 294 291 293 294 294 296 299 297 294 293 293 294 295 296 296 297 298 298 299 300 300 301 302 304 306 309 314 316 319
296 287 282 279 281 288 286 288 289 287 283 285 285 286 291 292 293 295 296 297 295 293 293 292 292 292 292 293 293 295 295 296 295 296 296 297 298 299 300 302 304 307 311 314
292 283 284 284 287 288 289 288 288 286 287 284 286 285 288 293 295 296 297 294 293 292 291 291 290 290 290 291 291 293 293 293 293 293 293 294 295 295 296 296 298 299 302 305
293 283 284 280 286 286 283 287 289 288 288 288 287 287 294 296 295 290 291 290 289 289 289 289 288 288 288 287 288 291 290 289 290 291 291 292 292 291 292 292 293 293 295 297
290 282 282 281 283 285 280 284 287 288 290 290 286 290 293 290 288 287 287 287 286 286 286 287 285 286 285 285 288 287 287 287 288 288 289 289 289 288 288 289 290 290 292 294
286 283 279 270 275 273 281 284 289 287 285 284 286 286 287 288 285 285 284 284 283 283 284 284 283 283 283 284 286 284 284 285 285 285 285 286 286 285 285 287 288 289 290 290
288 285 278 277 263 276 280 282 284 284 281 281 282 282 284 284 283 280 282 282 281 281 282 281 281 281 281 283 281 281 281 282 282 282 282 284 283 280 281 283 285 287 288 289
289 288 279 265 265 266 277 283 286 286 277 279 279 277 277 284 283 279 279 279 278 278 279 278 279 279 280 278 278 278 277 278 279 279 281 279 278 278 279 282 284 286 287 287
282 280 272 268 264 272 281 280 284 275 276 276 275 274 274 276 275 276 276 275 276 276 276 277 276 276 275 276 276 274 275 276 277 278 276 275 276 276 278 283 284 285 286 286
279 279 278 274 267 270 273 278 280 276 274 274 272 272 272 273 274 273 272 272 273 273 273 273 272 272 273 274 273 273 273 274 274 273 272 272 272 276 279 280 280 283 285 285
275 279 276 278 276 273 273 273 274 275 273 271 271 271 270 270 269 270 269 270 271 270 270 271 270 270 271 272 271 270 271 272 270 268 268 269 270 272 274 275 279 282 284 285
279 281 277 275 271 270 271 270 270 270 269 269 269 268 269 267 268 267 268 268 268 268 268 268 267 267 267 268 268 268 269 269 266 265 266 267 268 270 271 272 274 275 277 281
277 280 275 271 271 270 269 269 269 269 268 267 267 267 266 267 266 265 265 266 266 266 266 267 265 265 265 266 266 266 267 266 265 265 266 266 267 267 268 270 271 273 277 281
271 274 276 275 273 271 270 268 269 267 266 265 265 265 266 266 264 264 264 265 264 264 265 264 264 264 263 263 263 264 264 265 264 264 265 265 266 267 268 268 269 275 278 281
Wind_Speed
6 5 20 12 9 7 3 4 6 1 1 3 4 10 12 8 10 11 13 9 9 10 12 11 11 15 14 12 14 17 15 16 12 11 9 9 11 9 8 9 11 12 11 12
4 20 9 6 9 9 6 6 9 3 1 1 4 16 16 17 17 16 15 13 11 8 9 10 9 10 14 19 17 15 17 15 13 10 11 10 8 8 9 8 11 13 14 13
16 7 12 11 6 12 12 14 7 4 1 3 4 18 16 21 14 14 15 15 16 17 17 16 12 12 14 15 16 17 17 17 16 16 9 6 2 2 4 8 10 11 14 14
12 14 9 10 13 12 15 9 4 7 3 9 5 12 11 6 16 12 17 18 20 21 17 18 17 9 9 12 13 13 14 16 15 16 13 16 13 13 12 12 10 10 13 15
10 11 16 13 24 15 14 8 10 13 13 2 5 7 12 5 7 14 14 14 16 15 14 13 8 7 5 6 8 9 12 13 14 14 17 13 14 12 10 8 12 12 11 14
4 2 5 9 7 19 7 5 4 5 9 12 19 10 12 9 8 4 6 9 3 1 3 5 5 4 2 3 2 4 7 8 8 10 15 16 17 15 10 10 9 10 9 9
7 9 3 1 11 10 10 8 4 7 9 14 9 11 18 6 10 6 4 3 5 6 6 5 8 7 7 8 7 5 2 6 5 7 11 15 16 15 15 13 10 11 9 9
4 5 11 7 22 13 17 12 5 7 5 2 5 10 11 14 9 9 8 4 3 7 4 6 8 7 7 7 7 7 6 5 4 4 8 7 13 11 11 13 11 9 11 11
6 6 3 9 5 8 10 13 8 3 1 3 6 8 9 10 2 6 11 5 5 5 6 7 7 7 7 8 8 8 8 7 7 6 5 7 8 11 13 14 13 11 12 11
8 3 2 5 5 8 6 8 7 6 5 4 6 8 10 5 8 8 8 8 6 4 5 5 6 7 8 7 7 9 9 8 8 8 6 5 6 7 9 11 13 13 13 14
6 3 2 1 12 12 5 2 7 1 4 6 3 8 7 9 9 13 10 9 8 6 4 4 5 8 7 7 9 8 10 10 13 13 11 8 7 6 6 7 10 11 13 14
7 5 5 5 1 3 3 4 5 5 6 5 1 7 5 8 7 9 8 7 5 4 5 7 8 8 11 12 11 10 10 12 13 14 13 12 10 8 7 7 9 9 10 12
12 5 4 2 1 3 4 6 4 3 1 4 7 3 7 10 6 5 10 6 4 8 11 12 10 9 11 12 12 12 12 12 13 13 14 15 15 13 13 12 11 10 10 11
12 6 8 10 5 7 8 11 11 6 2 1 2 3 11 9 9 7 6 7 9 12 10 9 10 11 11 10 11 11 12 12 15 14 13 13 14 15 14 14 13 12 11 12
11 7 3 0 4 4 7 8 16 12 8 8 3 0 9 6 2 7 5 7 9 10 10 10 10 10 11 13 13 12 12 13 15 15 14 14 14 13 14 14 14 13 12 11
4 5 4 2 4 3 3 8 16 13 11 7 12 11 13 9 3 7 8 9 9 8 10 8 10 11 12 14 13 12 14 14 13 12 14 14 15 15 14 14 15 14 13 12
9 6 4 5 2 5 5 14 12 8 6 10 9 5 8 10 11 7 9 9 8 8 9 10 12 11 12 13 12 13 15 14 13 12 11 11 13 16 17 15 14 13 14 13
8 7 3 4 2 5 5 4 11 8 3 6 8 6 6 11 12 12 13 11 10 11 12 11 11 12 13 12 10 13 13 12 13 13 12 12 13 15 17 17 17 16 14 14
5 6 4 5 5 6 4 3 7 9 4 5 7 4 5 12 10 11 10 10 10 12 11 11 12 14 13 12 15 15 13 13 13 12 14 14 14 18 18 18 17 15 15 15
4 5 5 3 6 9 7 2 5 3 3 5 8 7 7 4 4 3 12 12 12 12 11 13 14 13 13 16 17 16 17 16 14 16 16 17 17 18 18 18 18 16 15 16
5 3 7 4 4 8 5 6 6 7 4 8 9 7 8 5 3 8 11 12 13 12 13 12 13 13 15 16 17 18 17 16 18 18 19 18 17 19 18 18 17 18 19 19
7 7 4 3 2 9 8 2 5 6 7 9 9 7 5 3 6 9 11 13 14 15 17 17 15 15 15 16 15 18 18 19 19 20 20 18 17 14 15 19 18 17 18 18
2 7 7 5 5 5 8 10 7 6 7 5 5 5 4 3 5 9 10 11 13 14 14 15 15 16 14 14 16 18 18 20 21 20 19 19 18 16 15 16 18 16 14 13
2 3 5 5 5 7 8 8 8 9 9 7 6 5 5 6 7 7 9 10 11 13 14 14 15 16 16 15 16 15 17 18 18 20 20 18 18 17 15 13 13 13 13 13
2 6 8 5 6 7 3 6 7 8 7 5 5 6 6 5 7 8 8 10 11 12 12 12 12 14 16 16 16 16 17 17 18 18 17 17 15 16 17 14 13 14 15 16
2 5 7 5 14 3 7 10 7 7 5 4 3 4 6 8 8 9 8 8 9 11 11 10 12 12 13 14 15 16 17 17 18 18 14 14 14 14 14 15 16 21 29 31
Wind_Direction
177 194 222 203 216 240 121 211 218 359 79 340 283 288 288 283 286 287 287 265 258 260 251 237 217 219 213 210 208 209 201 206 197 199 195 208 213 213 217 217 214 204 206 204
172 228 203 176 178 212 213 219 230 274 289 246 293 284 286 283 270 258 254 263 261 259 268 259 241 214 206 211 207 208 210 201 203 208 208 213 211 219 222 214 216 209 205 202
207 215 176 183 178 202 217 219 198 223 350 234 307 283 274 265 257 256 245 236 244 245 251 252 252 227 222 213 206 209 209 204 203 207 204 203 190 188 203 221 221 214 209 207
219 236 187 203 219 194 230 187 198 244 212 257 143 283 270 257 259 253 254 244 240 248 251 247 247 245 216 222 216 216 214 212 206 198 202 208 212 216 222 230 232 223 215 214
211 171 191 190 217 193 240 149 184 220 223 182 193 258 276 290 273 270 269 260 249 255 251 250 247 260 263 246 228 223 222 218 213 202 203 205 216 224 223 224 227 221 215 217
243 354 202 213 155 185 141 104 163 184 217 234 236 215 271 237 219 292 291 329 245 7 69 91 84 74 90 46 93 210 217 215 209 211 213 212 218 223 221 225 226 226 223 215
203 227 262 319 198 181 166 147 209 209 201 231 188 193 237 273 274 210 232 340 66 71 79 97 76 55 30 29 30 27 328 258 249 222 220 221 223 227 225 223 224 226 222 222
197 237 193 207 230 198 195 193 192 222 195 183 127 216 247 227 249 248 180 173 151 92 71 58 56 43 23 14 20 18 22 356 338 262 252 238 233 232 228 231 229 227 227 227
186 227 130 234 242 196 192 209 147 173 8 109 201 266 294 260 200 99 119 141 119 83 71 50 37 29 16 9 1 359 352 349 349 331 295 274 258 244 239 236 231 229 227 231
179 165 225 278 215 220 224 163 169 209 201 207 239 253 227 190 187 140 140 157 144 146 82 57 25 20 355 20 10 11 5 342 327 326 319 293 282 271 261 253 245 235 232 231
136 156 160 317 202 212 202 245 209 136 187 206 194 250 230 200 164 156 169 166 160 140 120 61 32 19 16 19 34 22 14 360 357 349 331 320 314 300 283 268 265 252 241 236
164 157 189 203 343 14 80 213 228 229 193 242 144 265 346 171 144 134 144 140 151 165 86 53 43 34 30 25 18 18 15 15 3 349 345 337 324 321 311 295 283 276 263 251
159 171 132 208 161 184 196 180 163 184 177 218 214 265 356 38 78 117 127 151 130 46 37 46 36 35 31 22 17 12 10 9 359 354 354 347 344 341 335 326 317 298 285 273
146 169 184 208 184 136 195 201 190 152 191 249 319 172 79 32 3 25 56 36 56 55 52 46 37 28 21 19 12 7 7 3 352 352 351 350 347 338 334 329 324 316 307 296
164 186 185 139 167 144 192 184 184 192 185 145 193 333 294 280 260 293 77 72 68 55 47 43 34 19 12 6 3 360 359 357 349 345 345 341 336 335 331 332 329 322 314 304
180 172 161 115 139 130 166 193 196 200 195 196 209 213 178 248 132 83 79 80 70 58 41 24 26 12 10 359 351 352 351 346 342 340 333 333 334 332 330 327 324 318 313 304
156 127 151 183 223 91 280 221 199 198 201 203 205 192 154 148 123 94 80 68 59 41 22 20 11 1 358 345 338 352 341 333 332 330 324 327 330 328 328 323 317 310 308 305
145 109 129 166 81 201 241 308 213 212 77 40 74 35 15 107 100 73 48 36 25 15 10 10 355 349 345 333 348 337 330 325 326 327 328 329 330 328 322 319 317 314 311 307
178 115 127 165 189 291 307 158 149 165 189 33 118 75 60 130 112 66 41 26 21 5 357 352 350 338 331 340 342 332 329 328 324 328 329 329 334 321 318 314 310 309 305 302
100 136 121 81 141 207 232 209 346 128 238 56 88 42 2 209 212 102 8 10 6 355 352 344 341 336 344 343 335 335 334 332 331 332 328 328 319 316 312 308 307 308 301 295
129 91 154 172 202 283 269 326 301 125 182 105 90 59 28 87 9 332 353 351 348 341 342 343 344 345 342 336 340 332 330 330 332 325 320 320 317 312 303 305 308 308 304 301
155 153 165 115 123 269 15 298 194 116 85 104 100 86 84 9 337 344 337 338 339 345 348 349 346 346 342 341 335 329 328 329 324 323 319 317 312 305 309 307 303 298 299 298
202 179 176 183 194 68 23 92 62 74 117 106 101 72 46 23 354 341 337 339 346 343 341 346 341 334 340 342 338 327 323 324 323 321 316 314 312 308 301 298 302 302 298 294
244 155 110 139 162 131 109 83 71 70 86 78 58 50 36 17 3 355 343 348 347 349 347 345 343 341 337 337 331 319 322 324 320 314 314 313 311 311 310 301 297 295 295 291
186 137 121 87 117 110 127 118 124 106 87 73 48 36 28 15 24 8 354 354 350 346 345 346 343 338 333 333 329 327 325 326 319 313 311 312 309 310 308 300 299 293 285 282
194 156 169 195 155 109 123 139 134 121 99 71 41 37 40 33 24 10 4 356 349 341 341 343 339 337 331 328 328 326 328 323 318 314 317 313 309 310 307 305 303 290 291 289